Temp_Advection
nan nan nan nan nan nan nan nan nan nan nan nan nan nan nan nan nan nan nan nan nan nan nan nan nan nan nan nan nan nan nan nan nan nan nan nan nan nan
nan -1 -1 -0 -0 0 -0 -1 -0 -1 -0 -0 0 1 0 0 0 0 0 0 0 0 0 0 0 0 0 0 0 -0 0 0 0 0 0 -0 -0 nan
nan -1 -0 -1 -0 0 0 0 -0 -0 -0 -0 0 1 0 -0 0 0 0 0 0 0 0 0 0 0 0 0 0 -0 -0 0 0 0 0 0 -0 nan
nan -1 -1 -0 -0 0 0 1 -1 -1 -1 0 0 0 0 0 0 0 0 0 0 0 0 0 0 0 0 0 -0 0 0 0 0 0 -0 0 -0 nan
nan -1 -1 -1 -0 -0 0 -1 1 1 -1 -0 0 0 0 0 0 0 0 0 0 0 0 0 0 0 0 0 -0 -0 0 0 0 -0 -0 -0 -0 nan
nan -1 -2 -1 -0 -0 -0 2 2 -1 1 0 0 0 0 0 0 -0 -0 0 0 0 0 0 0 0 -0 0 0 0 0 0 0 -0 -0 -0 0 nan
nan -1 -2 -2 -0 1 -0 -0 1 0 -1 -1 -1 1 0 -0 -0 -0 0 0 0 -0 -0 0 1 -0 -0 0 0 0 0 0 0 0 -0 -0 -0 nan
nan -1 -1 -2 -1 -1 1 1 -0 -1 -1 -2 -1 -0 1 -0 -0 1 0 0 -0 -1 0 1 0 -0 0 0 0 0 0 0 0 -0 -0 -0 -0 nan
nan -2 -1 -2 -2 -1 1 1 -0 -1 -1 -0 -0 -1 -0 -0 1 0 -0 -0 -0 0 1 1 0 0 0 0 0 0 0 0 -0 -0 -0 -0 -0 nan
nan -2 -1 -2 -3 -0 0 1 1 0 -0 -1 -3 -1 1 1 1 0 0 0 1 1 1 0 -0 0 0 0 0 0 0 0 -0 -0 -0 -0 -0 nan
nan -2 -2 -3 -2 -1 0 1 0 -0 -1 -2 -0 1 2 1 1 1 0 0 1 0 0 0 0 0 0 0 0 0 0 0 -0 -0 -0 -0 0 nan
nan -3 -3 -2 -2 -3 -0 -0 -0 0 0 0 0 -1 -0 0 -0 -0 -0 0 -0 -0 -0 0 0 0 0 0 0 0 0 0 -0 -0 -0 -0 -0 nan
nan -5 -5 -2 -2 -3 -1 -1 -0 1 0 -0 -0 -1 -0 -0 -0 0 0 -0 0 0 0 0 0 0 -0 -0 0 0 0 0 -0 -0 -0 0 -0 nan
nan -4 -5 -2 -3 -3 -2 -1 1 2 0 0 -0 -1 -0 0 0 0 -0 0 1 1 1 0 0 0 0 0 0 0 0 0 0 -0 0 -0 -0 nan
nan -2 -5 -5 -3 -3 -4 -0 1 2 0 -1 -2 -1 0 0 1 -0 -0 0 1 1 1 1 1 0 0 0 0 0 0 0 0 0 0 -0 0 nan
nan -2 -4 -4 -2 -4 -4 -0 0 1 -0 -1 -1 0 1 0 1 0 0 1 0 0 0 1 1 0 0 0 0 0 0 -0 0 -0 0 -0 -0 nan
nan -2 -4 -3 -2 -4 -3 -2 1 2 1 -1 -1 -0 -0 0 1 1 0 0 -0 0 -0 0 0 0 1 1 0 0 -0 -0 0 -0 -0 -0 -0 nan
nan -2 -3 -4 -3 -3 -3 -1 2 0 -1 -2 -1 -0 -1 -0 0 0 0 0 1 0 0 0 0 0 0 0 0 0 0 0 -0 0 0 -0 -0 nan
nan -2 -3 -4 -3 -2 -4 -1 -0 -0 -1 -1 0 0 -1 -0 1 -0 0 1 1 1 1 1 1 0 0 -0 -0 0 0 0 -0 0 0 -0 -0 nan
nan -1 -2 -4 -3 -3 -3 -2 -1 -0 -1 0 0 -1 -1 0 0 -0 0 0 0 1 1 1 0 1 0 0 0 0 0 -0 -0 -0 0 -0 -0 nan
nan -2 -2 -4 -4 -3 -3 -4 -1 1 -0 -0 -1 -1 -1 0 1 -0 -0 -1 0 1 1 0 1 1 1 1 0 -0 -0 -0 0 -0 -0 -0 -0 nan
nan -3 -3 -3 -3 -3 -3 -3 0 -0 -1 -1 -1 -1 -0 1 1 -1 -0 0 0 1 1 1 1 1 0 1 0 0 0 0 -0 -0 -0 -0 -0 nan
nan nan nan nan nan nan nan nan nan nan nan nan nan nan nan nan nan nan nan nan nan nan nan nan nan nan nan nan nan nan nan nan nan nan nan nan nan nan
Wind_Speed
35 44 51 46 48 39 45 46 35 24 26 26 31 35 42 36 32 30 26 23 23 21 19 18 17 16 15 14 15 15 16 18 22 26 30 34 34 36
41 33 50 50 47 49 42 45 41 31 25 22 24 27 24 32 35 31 28 26 25 23 21 20 19 17 15 14 15 15 15 18 22 25 30 33 34 37
37 45 37 50 52 50 48 42 38 34 31 24 23 21 24 23 28 34 31 29 27 25 23 21 19 16 15 15 15 13 14 18 22 25 29 31 33 36
26 38 37 44 52 50 48 48 41 37 36 29 23 21 21 24 22 24 31 31 29 27 25 23 19 17 16 15 13 12 14 18 22 26 27 30 34 33
23 32 36 46 50 51 55 50 42 38 34 34 28 22 18 19 22 24 24 28 30 28 27 23 20 17 15 14 13 11 14 17 21 25 26 31 31 29
31 24 40 38 44 50 54 53 48 46 36 34 32 25 20 19 20 22 25 24 27 30 27 24 21 17 15 13 11 12 14 16 20 22 28 29 27 27
38 27 38 40 37 37 49 51 52 50 51 40 37 35 27 24 24 23 22 19 22 23 22 23 21 18 15 12 9 11 12 15 18 22 26 26 25 27
45 37 20 45 41 36 35 44 46 53 53 54 51 47 41 31 27 26 23 23 20 20 21 22 21 17 14 9 8 10 11 14 17 21 24 22 23 26
40 45 30 38 43 36 34 41 48 45 54 55 59 49 47 41 34 28 22 19 20 15 22 22 21 18 13 8 7 9 10 12 17 21 20 20 23 23
38 48 44 26 49 40 35 38 49 49 50 53 55 49 47 44 31 23 19 20 19 18 19 23 21 18 12 8 7 8 7 13 16 18 18 20 20 22
37 41 50 36 42 46 39 38 47 50 48 46 47 45 49 45 37 27 25 27 26 23 24 20 22 18 11 9 8 5 7 12 15 16 15 17 18 21
36 39 49 46 32 49 46 41 40 46 52 49 48 43 40 44 42 38 32 31 30 26 29 25 21 16 12 12 9 5 6 10 13 13 14 15 16 18
33 37 42 51 36 54 49 39 36 38 47 47 45 42 38 38 41 37 31 28 30 29 30 27 22 18 13 12 9 7 5 7 9 10 11 12 15 17
33 36 38 50 36 60 52 45 31 40 45 50 51 48 48 49 45 39 35 31 30 31 22 25 21 18 14 13 10 8 3 4 5 7 9 12 14 17
31 36 38 44 50 50 55 46 36 46 50 52 56 57 56 50 48 44 39 35 35 31 23 23 20 16 15 13 10 7 1 2 3 5 7 9 11 13
31 33 34 38 53 34 57 47 41 49 52 52 57 57 58 54 51 47 43 41 40 33 28 26 22 17 14 13 10 6 1 0 1 3 4 7 8 10
34 36 35 32 37 44 53 45 49 55 54 51 58 58 59 57 53 49 45 45 43 39 34 29 25 19 17 13 11 6 2 1 2 1 3 4 6 9
34 37 36 32 30 38 55 52 55 57 55 52 55 58 63 60 56 52 48 47 45 40 34 31 26 23 21 15 12 7 4 4 4 4 1 3 5 7
34 35 35 33 30 33 60 59 56 56 55 52 53 59 59 60 58 56 53 49 43 38 34 30 25 25 24 19 13 10 6 5 5 4 2 2 3 7
30 32 33 33 36 30 59 59 52 56 57 53 55 58 57 59 59 58 56 51 45 40 38 32 27 26 22 17 16 13 9 8 5 5 3 3 3 6
32 33 33 32 36 32 58 65 54 55 57 56 56 55 57 59 61 60 56 51 46 43 40 33 31 28 23 19 18 16 12 10 9 6 4 6 4 6
31 32 33 29 33 36 57 63 59 57 58 58 57 58 59 60 62 59 57 54 49 46 40 35 35 32 26 22 18 16 15 13 11 8 7 7 6 7
31 31 31 27 27 34 58 67 65 58 57 58 58 58 60 62 61 57 58 54 50 47 41 40 38 33 27 23 20 18 17 15 13 9 8 9 11 13
Wind_Direction
267 254 239 235 237 227 235 239 231 226 233 241 239 240 240 238 234 234 234 234 238 241 245 251 256 265 277 291 302 309 318 327 332 334 334 332 334 339
252 261 246 242 238 239 228 238 234 231 241 240 247 244 243 239 234 233 233 232 236 239 241 245 253 261 275 286 293 306 321 325 331 334 330 331 338 341
252 254 263 245 240 237 234 231 228 225 229 235 241 243 235 233 230 227 228 231 232 236 238 242 249 259 269 279 288 306 319 325 329 328 328 335 339 341
237 253 255 254 243 239 238 230 222 227 228 227 230 235 234 231 229 226 227 229 230 232 236 240 246 254 263 273 286 301 317 321 328 324 333 336 340 340
238 250 246 245 247 248 241 236 234 218 221 225 221 223 226 227 227 226 227 226 227 229 232 236 241 248 259 271 282 299 311 324 321 330 334 338 341 343
250 242 244 246 251 247 244 239 219 212 213 220 216 218 223 223 222 222 226 227 222 226 229 233 236 239 247 259 272 294 313 319 326 329 335 338 344 348
256 254 243 236 248 254 248 242 238 222 218 215 216 211 219 222 223 218 216 219 222 227 228 228 228 229 236 246 270 298 310 321 322 334 334 341 346 355
257 256 250 240 241 253 256 255 253 235 230 215 222 224 221 222 225 216 208 207 212 216 218 216 217 220 223 233 276 296 308 314 329 331 336 347 354 0
261 255 256 245 240 241 254 253 253 254 243 239 228 226 220 220 217 212 204 214 223 220 217 206 204 209 212 237 268 284 301 317 327 332 344 350 1 359
267 255 257 258 241 236 243 249 246 245 243 239 238 235 235 220 210 212 220 222 220 216 204 200 196 198 211 233 247 268 298 320 325 336 350 357 2 360
271 259 255 254 243 238 238 240 241 239 243 241 230 233 226 206 206 204 214 219 208 201 194 190 191 198 205 224 235 252 302 315 328 342 353 1 4 2
275 265 253 249 256 240 235 238 241 241 236 230 229 224 217 218 210 207 216 213 203 193 193 191 191 196 200 212 211 241 290 316 334 343 354 6 7 2
281 275 256 246 264 236 232 234 237 240 238 231 221 213 200 192 197 206 212 217 205 200 197 194 197 199 191 178 203 228 263 326 331 343 356 8 7 1
281 280 266 251 265 236 235 235 238 241 237 229 218 202 192 194 199 203 203 201 208 204 204 200 204 202 200 203 205 215 247 325 330 343 359 7 11 359
278 280 274 254 245 243 237 235 237 233 229 221 214 200 195 196 198 200 201 199 197 201 201 198 199 201 201 206 214 207 208 332 330 347 5 13 5 6
286 290 279 261 251 260 231 230 235 235 229 223 214 203 198 195 197 201 197 195 193 195 192 194 197 201 202 204 212 206 197 99 303 329 20 16 357 12
294 293 288 264 257 249 225 223 230 227 224 217 210 202 193 194 197 198 199 196 196 194 190 194 196 198 198 203 204 196 146 171 152 317 23 22 1 26
288 286 283 271 247 242 216 214 219 220 218 211 208 205 195 195 198 195 198 200 197 193 195 196 198 196 193 190 193 190 168 184 149 135 54 36 12 38
281 279 275 272 242 231 212 212 211 215 214 211 208 204 196 195 196 194 193 197 193 193 194 200 200 200 196 192 194 183 182 176 148 137 117 78 47 59
275 273 274 270 254 245 211 212 211 212 210 206 203 199 195 194 194 195 193 193 192 191 193 196 197 198 204 206 192 187 183 168 158 163 146 113 78 70
281 276 273 265 261 248 212 214 212 212 207 203 200 199 195 195 195 196 195 194 192 194 195 195 193 194 196 201 189 179 178 172 164 159 150 134 124 99
287 278 278 266 251 246 212 215 210 209 208 202 199 197 194 198 198 195 197 193 195 195 196 192 191 193 196 198 190 184 175 170 160 167 145 123 164 130
292 284 281 267 244 230 211 213 211 209 205 200 198 200 197 197 198 199 198 196 194 196 194 189 191 191 195 192 190 187 178 168 154 159 114 111 118 114
Height
1494 1496 1499 1502 1505 1512 1512 1517 1524 1526 1527 1529 1531 1533 1537 1542 1548 1552 1556 1559 1562 1564 1567 1569 1569 1569 1571 1570 1570 1567 1565 1564 1561 1557 1553 1548 1543 1537
1490 1493 1492 1494 1497 1503 1509 1511 1515 1521 1523 1526 1527 1529 1532 1535 1540 1546 1550 1554 1557 1560 1562 1564 1566 1566 1568 1567 1567 1565 1564 1562 1558 1554 1551 1546 1539 1534
1481 1482 1483 1487 1490 1495 1499 1506 1510 1513 1516 1519 1523 1525 1527 1530 1532 1538 1543 1547 1551 1554 1557 1559 1561 1563 1564 1564 1564 1562 1561 1559 1556 1550 1546 1543 1536 1532
1470 1474 1477 1478 1482 1486 1490 1496 1504 1509 1509 1513 1518 1521 1522 1525 1529 1532 1536 1540 1545 1549 1552 1555 1558 1559 1560 1561 1561 1559 1558 1556 1552 1548 1543 1540 1535 1529
1459 1466 1467 1472 1474 1476 1481 1487 1491 1503 1505 1506 1510 1515 1518 1520 1524 1528 1531 1533 1539 1544 1546 1551 1553 1556 1557 1559 1559 1558 1555 1552 1549 1545 1541 1537 1532 1526
1449 1452 1458 1460 1464 1470 1473 1478 1485 1491 1499 1502 1502 1509 1513 1516 1519 1523 1527 1528 1532 1536 1542 1546 1549 1551 1552 1553 1556 1555 1553 1550 1545 1542 1539 1535 1529 1524
1440 1443 1448 1450 1456 1459 1463 1469 1475 1480 1488 1493 1496 1496 1505 1510 1514 1518 1521 1525 1528 1532 1536 1540 1544 1546 1547 1551 1552 1551 1549 1547 1544 1540 1537 1532 1527 1522
1430 1433 1434 1440 1445 1448 1452 1457 1463 1469 1476 1482 1486 1491 1494 1502 1510 1514 1516 1518 1523 1527 1531 1535 1540 1542 1544 1546 1548 1549 1546 1545 1541 1538 1536 1530 1524 1521
1422 1425 1426 1432 1433 1437 1442 1447 1453 1457 1466 1472 1474 1480 1487 1492 1503 1508 1510 1514 1518 1521 1527 1532 1536 1538 1542 1542 1543 1544 1544 1541 1539 1537 1533 1528 1523 1519
1411 1414 1417 1418 1421 1426 1432 1436 1442 1447 1453 1460 1465 1474 1480 1488 1496 1504 1508 1510 1513 1519 1524 1528 1532 1534 1538 1539 1538 1540 1539 1538 1537 1533 1528 1526 1522 1518
1404 1402 1407 1408 1410 1416 1422 1428 1434 1436 1442 1449 1457 1463 1470 1478 1488 1494 1500 1503 1509 1515 1520 1524 1528 1532 1532 1536 1536 1536 1534 1535 1533 1529 1527 1525 1522 1517
1392 1388 1393 1393 1401 1406 1414 1420 1420 1423 1431 1439 1446 1452 1459 1467 1479 1489 1494 1497 1502 1509 1514 1520 1523 1527 1528 1530 1531 1532 1531 1530 1527 1526 1526 1522 1520 1516
1382 1378 1380 1384 1392 1395 1403 1405 1406 1415 1422 1429 1435 1441 1448 1458 1467 1477 1487 1494 1495 1501 1508 1514 1516 1521 1523 1525 1526 1528 1527 1525 1524 1524 1523 1520 1517 1513
1375 1371 1369 1375 1383 1387 1391 1395 1396 1405 1410 1418 1425 1432 1439 1449 1458 1469 1479 1485 1491 1496 1504 1508 1512 1515 1517 1521 1524 1522 1523 1522 1522 1522 1520 1516 1513 1510
1368 1365 1364 1365 1371 1374 1376 1383 1387 1394 1399 1407 1415 1422 1432 1439 1449 1461 1471 1477 1483 1492 1497 1504 1508 1511 1512 1514 1519 1518 1519 1519 1518 1520 1518 1513 1512 1510
1360 1357 1354 1353 1359 1360 1365 1370 1377 1383 1388 1396 1404 1413 1421 1432 1442 1451 1459 1468 1477 1484 1491 1499 1502 1506 1508 1510 1514 1513 1514 1517 1516 1517 1516 1514 1512 1508
1353 1349 1344 1343 1347 1349 1351 1354 1367 1375 1379 1386 1392 1400 1411 1422 1432 1442 1452 1460 1468 1474 1482 1492 1497 1501 1503 1506 1509 1509 1511 1512 1512 1515 1514 1511 1511 1507
1344 1342 1337 1336 1336 1335 1341 1340 1355 1363 1368 1375 1383 1391 1400 1409 1421 1433 1444 1453 1460 1466 1474 1485 1491 1496 1498 1502 1505 1506 1506 1506 1510 1510 1511 1510 1508 1505
1333 1331 1330 1327 1324 1330 1330 1329 1340 1351 1357 1364 1372 1382 1390 1400 1412 1423 1434 1446 1453 1459 1469 1479 1485 1490 1494 1497 1502 1504 1504 1503 1506 1508 1508 1508 1505 1503
1325 1321 1316 1314 1315 1319 1317 1321 1329 1338 1345 1354 1363 1372 1380 1390 1402 1414 1426 1434 1443 1451 1462 1471 1478 1484 1490 1491 1494 1499 1500 1500 1503 1504 1504 1504 1504 1503
1314 1310 1306 1303 1305 1307 1308 1309 1315 1325 1333 1342 1352 1362 1371 1382 1395 1407 1417 1424 1434 1443 1455 1463 1471 1478 1483 1488 1490 1492 1495 1496 1500 1501 1503 1502 1502 1503
1301 1298 1294 1292 1294 1296 1296 1295 1305 1314 1322 1331 1340 1353 1362 1376 1387 1396 1406 1413 1426 1435 1448 1458 1465 1471 1477 1483 1488 1489 1490 1492 1496 1497 1499 1500 1502 1501
1291 1287 1283 1281 1281 1284 1284 1286 1293 1300 1309 1319 1331 1344 1356 1367 1379 1390 1400 1408 1417 1431 1441 1449 1457 1464 1473 1478 1481 1487 1487 1490 1492 1496 1496 1498 1500 1498